Regional Weather Roundup
Issued by NWS

Home | Current Version | Previous Version | Text Only | Print | Product List | Glossary On
Versions: 1 2 3 4 5 6 7 8 9 10 11 12 13 14 15 16 17 18 19 20 21 22 23 24 25 26 27 28 29 30 31 32 33 34 35 36 37 38 39 40 41 42 43 44 45 46 47 48 49 50
000
ASUS43 KDTX 300001
RWRMI
MICHIGAN HOURLY REGIONAL WEATHER ROUNDUP
NATIONAL WEATHER SERVICE DETROIT/PONTIAC MI
800 PM EDT MON SEP 29 2014

NOTE: "FAIR" INDICATES FEW OR NO CLOUDS BELOW 12,000 FEET WITH NO
SIGNIFICANT WEATHER AND/OR OBSTRUCTION TO VISIBILITY.

MIZ047>049-052>055-059>063-066>070-074>076-081>083-300100-
SOUTHEAST LOWER MICHIGAN

CITY           SKY/WX    TMP DP  RH WIND       PRES   REMARKS
ADRIAN         CLEAR     67  56  67 W3        29.92F
6HR MIN TEMP:  67; 6HR MAX TEMP:  79;

ALMA           LGT RAIN  70  59  68 N10       29.90R
ANN ARBOR      CLEAR     62  56  80 CALM      29.90F
BAD AXE        MOCLDY    66  60  81 S3        29.87S
6HR MIN TEMP:  66; 6HR MAX TEMP:  77;

CARO           PTCLDY    63  61  93 CALM      29.87S
DETROIT CITY   CLEAR     73  52  47 W3        29.91F
DETROIT        PTCLDY    67  58  72 S7        29.91S
6HR MIN TEMP:  67; 6HR MAX TEMP:  79;

FLINT          CLEAR     71  57  61 SW5       29.89S
6HR MIN TEMP:  71; 6HR MAX TEMP:  80;

GROSSE ILE     CLEAR     66  61  82 S6        29.89F
HILLSDALE      CLEAR     62  57  82 CALM      29.93F
HOWELL         CLEAR     68  56  64 CALM      29.91S
6HR MIN TEMP:  68; 6HR MAX TEMP:  76;


CITY           SKY/WX    TMP DP  RH WIND       PRES   REMARKS
JACKSON        CLEAR     65  58  78 CALM      29.92S
6HR MIN TEMP:  65; 6HR MAX TEMP:  78;

LAMBERTVILLE   CLEAR     63  55  77 CALM      29.92S
LANSING        CLEAR     68  58  70 SW5       29.91S
6HR MIN TEMP:  68; 6HR MAX TEMP:  78;

LAPEER         FAIR      64  57  78 S3        29.89S
MASON          CLEAR     66  58  75 CALM      29.91S
MONROE         CLEAR     64  61  88 CALM      29.89F
MT. CLEMENS    PTCLDY    66  60  81 CALM      29.87F
6HR MIN TEMP:  65; 6HR MAX TEMP:  76;

PONTIAC        PTCLDY    67  55  65 CALM      29.90S
6HR MIN TEMP:  67; 6HR MAX TEMP:  77;

PORT HOPE        N/A     64  59  83 VRB3      29.87R
6HR MIN TEMP:  64; 6HR MAX TEMP:  69;

PORT HURON     CLEAR     61  59  94 CALM      29.89F
TRI CITIES     RAIN      65  62  90 NW13      29.90R
6HR MIN TEMP:  65; 6HR MAX TEMP:  79; 6HR PCP:  0.06;

TROY           CLEAR     73  52  48 SW3       29.91F
SAGINAW HB     MOCLDY    72  57  60 SW6       29.86S
$$
MIZ043>046-050>051-056>058-064>065-071>073-077>080-300100-
SOUTHWEST LOWER MICHIGAN

CITY           SKY/WX    TMP DP  RH WIND       PRES   REMARKS
BATTLE CREEK   CLEAR     67  57  70 SW6       29.92F
6HR MIN TEMP:  67; 6HR MAX TEMP:  78;

BIG RAPIDS     LGT RAIN  54  54 100 NW12      29.95R
6HR MIN TEMP:  54; 6HR MAX TEMP:  78; 6HR PCP:  0.07;

COLDWATER      CLEAR     69  58  67 SW3       29.93S
6HR MIN TEMP:  69; 6HR MAX TEMP:  80;

FREMONT        RAIN      53  52  95 N12       29.97R
HOLLAND        CLOUDY    61  57  87 NW7       29.95S
6HR MIN TEMP:  61; 6HR MAX TEMP:  77;

GRAND RAPIDS   CLOUDY    69  61  75 NW14      29.92R
6HR MIN TEMP:  69; 6HR MAX TEMP:  79;

IONIA          FAIR      68  58  70 W9        29.89S
KALAMAZOO      CLEAR     68  56  65 W5        29.92F
6HR MIN TEMP:  68; 6HR MAX TEMP:  79;

LUDINGTON      CLOUDY    49  47  93 N10G20    30.02R
6HR MIN TEMP:  49; 6HR MAX TEMP:  63; 6HR PCP:  0.11;

MARSHALL       CLEAR     65  58  76 CALM      29.91S
MOUNT PLEASANT LGT RAIN  59  57  93 NW7       29.92R
6HR MIN TEMP:  59; 6HR MAX TEMP:  80; 6HR PCP:  0.05;

MUSKEGON       LGT RAIN  57  52  83 N8G21     29.97R
6HR MIN TEMP:  57; 6HR MAX TEMP:  73; 6HR PCP: TRACE;

SOUTH HAVEN    CLOUDY    60  58  92 N14G20    29.95R
$$
MIZ016>042-300100-
NORTHERN LOWER MICHIGAN

CITY           SKY/WX    TMP DP  RH WIND       PRES   REMARKS
ALPENA         LGT RAIN  54  53  97 NW6       29.92R FOG
6HR MIN TEMP:  54; 6HR MAX TEMP:  76; 6HR PCP:  0.42;

BEAVER ISLAND  CLOUDY    48  46  90 N13       30.02R
6HR MIN TEMP:  48; 6HR MAX TEMP:  51;

BELLAIRE       LGT RAIN  51  49  94 NW7       29.99R
6HR MIN TEMP:  51; 6HR MAX TEMP:  58;

CADILLAC       CLOUDY    49  48  99 NW12G18   29.97S FOG
CHARLEVOIX     DRIZZLE   51  50  94 NW14G24   30.02R
6HR MIN TEMP:  51; 6HR MAX TEMP:  56;

FRANKFORT      CLOUDY    49  46  87 N12G18    30.02S FOG
GAYLORD        CLOUDY    50  49  96 NW7       29.95S FOG
6HR MIN TEMP:  50; 6HR MAX TEMP:  57; 6HR PCP:  0.20;

GRAYLING       CLOUDY    53  53  98 NW7       29.96R FOG
6HR MIN TEMP:  53; 6HR MAX TEMP:  78;

HARBOR SPRINGS CLOUDY    49  47  91 N9        29.99R
HOUGHTON LAKE  LGT RAIN  51  49  92 NW12      29.95R
6HR MIN TEMP:  51; 6HR MAX TEMP:  77; 6HR PCP:  0.17;

OSCODA         LGT RAIN  61  60  98 N5        29.88S
PELLSTON       LGT RAIN  48  47  96 N9        29.99R FOG
6HR MIN TEMP:  48; 6HR MAX TEMP:  56; 6HR PCP:  0.14;

TRAVERSE CITY  DRIZZLE   51  48  89 NW12      29.99R
6HR MIN TEMP:  51; 6HR MAX TEMP:  58; 6HR PCP:  0.22;

$$
MIZ007>008-015-300100-
EASTERN UPPER MICHIGAN

CITY           SKY/WX    TMP DP  RH WIND       PRES   REMARKS
MACKINAC ISLAN CLOUDY    46  46  98 N12G17    29.99R
6HR MIN TEMP:  46; 6HR MAX TEMP:  57; 6HR PCP:  0.11;

NEWBERRY       CLOUDY    43  42  98 N5G17     30.03R
S. S. MARIE    CLOUDY    45  39  79 NE7       30.01R
6HR MIN TEMP:  45; 6HR MAX TEMP:  49; 6HR PCP:  0.03;

MUNISING         N/A     47  43  86 N23G29    30.10R
6HR MIN TEMP:  47; 6HR MAX TEMP:  48; 6HR PCP:  0.01;

$$
MIZ004>006-011>014-085-300100-
CENTRAL UPPER MICHIGAN

CITY           SKY/WX    TMP DP  RH WIND       PRES   REMARKS
MANISTIQUE     CLOUDY    43  40  91 N13G23    30.05S
$$
MIZ001>003-009>011-084-300100-
WESTERN UPPER MICHIGAN

CITY           SKY/WX    TMP DP  RH WIND       PRES   REMARKS
IRON MOUNTAIN  CLOUDY    44  36  73 N15G22    30.11R
6HR MIN TEMP:  44; 6HR MAX TEMP:  51;

HOUGHTON       CLOUDY    40  35  83 N7        30.17F
6HR MIN TEMP:  40; 6HR MAX TEMP:  41;

COPPER HARBOR    N/A     44  38  79 E18G26    30.18F
6HR MIN TEMP:  43; 6HR MAX TEMP:  44;

$$

ABBREVIATIONS USED IN REMARKS
   TC - TEMPERATURE IN CELSIUS
  WCI - WIND CHILL INDEX
   HX - HEAT INDEX
  VSB - VISIBILITY



USA.gov is the U.S. government's official web portal to all federal, state and local government web resources and services.